Time,TemperatureF,DewpointF,PressureIn,WindDirection,WindDirectionDegrees,WindSpeedMPH,WindSpeedGustMPH,Humidity,HourlyPrecipIn,Conditions,Clouds,dailyrainin,SoftwareType,DateUTC
2013-04-30 00:00:00,55.8,54.7,30.03,ESE,112,5.4,7.0,96,0.00,RA,,0.00,WeatherDisplay:10.37,2013-04-30 04:00:00,
2013-04-30 00:01:00,55.8,54.7,30.03,ESE,112,2.7,6.9,96,0.00,RA,,0.00,WeatherDisplay:10.37,2013-04-30 04:01:00,
2013-04-30 00:02:00,55.9,54.8,30.03,West,270,3.9,5.8,96,0.00,RA,,0.00,WeatherDisplay:10.37,2013-04-30 04:02:00,
2013-04-30 00:03:00,55.9,54.5,30.02,West,270,2.5,5.8,95,0.00,RA,,0.00,WeatherDisplay:10.37,2013-04-30 04:03:00,
2013-04-30 00:04:00,55.9,54.5,30.02,West,270,1.9,3.5,95,0.00,RA,,0.00,WeatherDisplay:10.37,2013-04-30 04:04:00,
2013-04-30 00:09:00,55.9,54.8,30.02,West,270,0.0,0.0,96,0.00,RA,,0.00,WeatherDisplay:10.37,2013-04-30 04:09:00,
2013-04-30 00:14:00,55.8,54.7,30.03,West,270,0.0,0.0,96,0.00,RA,,0.00,WeatherDisplay:10.37,2013-04-30 04:14:00,
2013-04-30 00:19:00,55.8,54.7,30.03,West,270,0.0,0.0,96,0.00,BKN,,0.00,WeatherDisplay:10.37,2013-04-30 04:19:00,
2013-04-30 00:24:00,55.6,54.8,30.03,West,270,0.0,0.0,97,0.00,BKN,,0.00,WeatherDisplay:10.37,2013-04-30 04:24:00,
2013-04-30 00:29:00,55.6,54.5,30.03,SSW,202,3.3,4.6,96,0.00,BKN,,0.00,WeatherDisplay:10.37,2013-04-30 04:29:00,
2013-04-30 00:34:00,55.8,54.7,30.03,SSW,202,0.0,0.0,96,0.00,BKN,,0.00,WeatherDisplay:10.37,2013-04-30 04:34:00,
2013-04-30 00:39:00,55.9,54.5,30.03,SE,135,0.0,2.3,95,0.00,BKN,,0.00,WeatherDisplay:10.37,2013-04-30 04:39:00,
2013-04-30 00:44:00,55.8,54.4,30.03,SE,135,0.0,0.0,95,0.00,BKN,,0.00,WeatherDisplay:10.37,2013-04-30 04:44:00,
2013-04-30 00:49:00,55.8,53.8,30.03,West,270,2.2,2.7,93,0.00,BKN,,0.00,WeatherDisplay:10.37,2013-04-30 04:49:00,
2013-04-30 00:54:00,55.2,53.8,30.03,West,270,0.0,0.0,95,0.00,BKN,,0.00,WeatherDisplay:10.37,2013-04-30 04:54:00,
2013-04-30 00:59:00,54.9,53.5,30.03,West,270,2.9,3.6,95,0.00,BKN,,0.00,WeatherDisplay:10.37,2013-04-30 04:59:00,
2013-04-30 01:04:00,54.5,53.4,30.04,West,270,0.8,2.3,96,0.00,BKN,,0.00,WeatherDisplay:10.37,2013-04-30 05:04:00,
2013-04-30 01:09:00,54.0,52.9,30.04,West,270,0.0,0.0,96,0.00,BKN,,0.00,WeatherDisplay:10.37,2013-04-30 05:09:00,
2013-04-30 01:14:00,53.6,52.5,30.04,West,270,0.0,0.0,96,0.00,BKN,,0.00,WeatherDisplay:10.37,2013-04-30 05:14:00,
2013-04-30 01:19:00,53.4,52.6,30.03,West,270,0.0,0.0,97,0.00,BKN,,0.00,WeatherDisplay:10.37,2013-04-30 05:19:00,
2013-04-30 01:24:00,53.2,52.4,30.03,West,270,0.0,0.0,97,0.00,BKN,,0.00,WeatherDisplay:10.37,2013-04-30 05:24:00,
2013-04-30 01:29:00,52.9,52.1,30.03,West,270,0.0,0.0,97,0.00,BKN,,0.00,WeatherDisplay:10.37,2013-04-30 05:29:00,
2013-04-30 01:34:00,52.3,51.5,30.03,West,270,0.0,0.0,97,0.00,BKN,,0.00,WeatherDisplay:10.37,2013-04-30 05:34:00,
2013-04-30 01:39:00,52.2,51.7,30.03,West,270,0.0,0.0,98,0.00,BKN,,0.00,WeatherDisplay:10.37,2013-04-30 05:39:00,
2013-04-30 01:44:00,51.8,51.5,30.03,West,270,0.2,2.7,99,0.00,BKN,,0.00,WeatherDisplay:10.37,2013-04-30 05:44:00,
2013-04-30 01:49:00,52.2,51.7,30.03,WNW,292,2.6,4.6,98,0.00,BKN,,0.00,WeatherDisplay:10.37,2013-04-30 05:49:00,
2013-04-30 01:54:00,52.2,51.7,30.03,WNW,292,1.0,2.3,98,0.00,BKN,,0.00,WeatherDisplay:10.37,2013-04-30 05:54:00,
2013-04-30 01:59:00,52.5,52.0,30.03,WNW,292,0.0,2.3,98,0.00,BKN,,0.00,WeatherDisplay:10.37,2013-04-30 05:59:00,
2013-04-30 02:04:00,52.7,52.2,30.03,WNW,292,0.8,3.6,98,0.00,BKN,,0.00,WeatherDisplay:10.37,2013-04-30 06:04:00,
2013-04-30 02:09:00,53.2,51.8,30.03,SE,135,0.0,0.0,95,0.00,BKN,,0.00,WeatherDisplay:10.37,2013-04-30 06:09:00,
2013-04-30 02:14:00,52.5,51.7,30.03,SE,135,0.0,0.0,97,0.00,BKN,,0.00,WeatherDisplay:10.37,2013-04-30 06:14:00,
2013-04-30 02:19:00,52.3,51.8,30.03,ESE,112,2.7,4.6,98,0.00,BKN,,0.00,WeatherDisplay:10.37,2013-04-30 06:19:00,
2013-04-30 02:24:00,52.0,51.7,30.03,East,90,1.7,3.5,99,0.00,BKN,,0.00,WeatherDisplay:10.37,2013-04-30 06:24:00,
2013-04-30 02:29:00,52.0,52.0,30.03,East,90,1.2,2.7,100,0.00,BKN,,0.00,WeatherDisplay:10.37,2013-04-30 06:29:00,
2013-04-30 02:34:00,52.2,52.2,30.03,East,90,0.0,0.0,100,0.00,BKN,,0.00,WeatherDisplay:10.37,2013-04-30 06:34:00,
2013-04-30 02:39:00,52.2,52.2,30.03,East,90,1.8,2.7,100,0.00,BKN,,0.00,WeatherDisplay:10.37,2013-04-30 06:39:00,
2013-04-30 02:44:00,52.2,52.2,30.03,East,90,0.0,0.0,100,0.00,BKN,,0.00,WeatherDisplay:10.37,2013-04-30 06:44:00,
2013-04-30 02:49:00,52.3,52.3,30.03,East,90,0.0,0.0,100,0.00,BKN,,0.00,WeatherDisplay:10.37,2013-04-30 06:49:00,
2013-04-30 02:54:00,52.7,52.7,30.03,NNW,338,1.7,3.6,100,0.00,BKN,,0.00,WeatherDisplay:10.37,2013-04-30 06:54:00,
2013-04-30 02:59:00,52.7,52.7,30.03,NNW,338,0.0,0.0,100,0.00,BKN,,0.00,WeatherDisplay:10.37,2013-04-30 06:59:00,
2013-04-30 03:04:00,53.4,52.6,30.03,NNW,338,0.0,0.0,97,0.00,BKN,,0.00,WeatherDisplay:10.37,2013-04-30 07:04:00,
2013-04-30 03:09:00,53.8,52.7,30.03,NNW,338,0.0,0.0,96,0.00,BKN,,0.00,WeatherDisplay:10.37,2013-04-30 07:09:00,
2013-04-30 03:14:00,54.0,52.3,30.03,NNW,338,0.0,0.0,94,0.00,BKN,,0.00,WeatherDisplay:10.37,2013-04-30 07:14:00,
2013-04-30 03:19:00,54.1,52.4,30.03,NNE,22,0.0,2.3,94,0.00,BKN,,0.00,WeatherDisplay:10.37,2013-04-30 07:19:00,
2013-04-30 03:24:00,54.5,52.5,30.03,NNE,22,2.3,2.7,93,0.00,BKN,,0.00,WeatherDisplay:10.37,2013-04-30 07:24:00,
2013-04-30 03:29:00,54.0,52.6,30.03,NNE,22,0.0,0.0,95,0.00,BKN,,0.00,WeatherDisplay:10.37,2013-04-30 07:29:00,
2013-04-30 03:34:00,54.3,52.0,30.03,SSE,158,5.9,10.4,92,0.00,BKN,,0.00,WeatherDisplay:10.37,2013-04-30 07:34:00,
2013-04-30 03:39:00,55.2,52.3,30.04,SSE,158,4.4,7.0,90,0.00,BKN,,0.00,WeatherDisplay:10.37,2013-04-30 07:39:00,
2013-04-30 03:44:00,55.4,52.2,30.04,ESE,112,3.6,4.6,89,0.00,BKN,,0.00,WeatherDisplay:10.37,2013-04-30 07:44:00,
2013-04-30 03:49:00,55.4,52.2,30.04,SSE,158,4.3,8.1,89,0.00,BKN,,0.00,WeatherDisplay:10.37,2013-04-30 07:49:00,
2013-04-30 03:54:00,55.4,52.2,30.04,East,90,2.4,3.5,89,0.00,BKN,,0.00,WeatherDisplay:10.37,2013-04-30 07:54:00,
2013-04-30 03:59:00,55.2,52.0,30.04,ESE,112,2.7,5.8,89,0.00,BKN,,0.00,WeatherDisplay:10.37,2013-04-30 07:59:00,
2013-04-30 04:04:00,55.2,52.0,30.04,ESE,112,0.0,0.0,89,0.00,BKN,,0.00,WeatherDisplay:10.37,2013-04-30 08:04:00,
2013-04-30 04:09:00,55.0,51.8,30.04,ESE,112,0.0,0.0,89,0.00,BKN,,0.00,WeatherDisplay:10.37,2013-04-30 08:09:00,
2013-04-30 04:14:00,55.0,51.8,30.05,ESE,112,2.2,6.9,89,0.00,BKN,,0.00,WeatherDisplay:10.37,2013-04-30 08:14:00,
2013-04-30 04:19:00,54.9,51.7,30.05,ESE,112,0.0,3.5,89,0.00,BKN,,0.00,WeatherDisplay:10.37,2013-04-30 08:19:00,
2013-04-30 04:24:00,54.7,51.5,30.05,ESE,112,3.1,4.6,89,0.00,BKN,,0.00,WeatherDisplay:10.37,2013-04-30 08:24:00,
2013-04-30 04:29:00,54.7,51.5,30.05,ESE,112,0.9,2.3,89,0.00,BKN,,0.00,WeatherDisplay:10.37,2013-04-30 08:29:00,
2013-04-30 04:34:00,55.0,51.2,30.05,ESE,112,5.7,6.1,87,0.00,BKN,,0.00,WeatherDisplay:10.37,2013-04-30 08:34:00,
2013-04-30 04:39:00,54.7,51.2,30.05,ESE,112,5.0,8.1,88,0.00,BKN,,0.00,WeatherDisplay:10.37,2013-04-30 08:39:00,
2013-04-30 04:44:00,54.7,50.9,30.05,SSE,158,2.6,4.6,87,0.00,BKN,,0.00,WeatherDisplay:10.37,2013-04-30 08:44:00,
2013-04-30 04:49:00,54.5,51.0,30.05,SSE,158,0.0,0.0,88,0.00,BKN,,0.00,WeatherDisplay:10.37,2013-04-30 08:49:00,
2013-04-30 04:54:00,54.1,50.6,30.06,SSE,158,0.0,0.0,88,0.00,BKN,,0.00,WeatherDisplay:10.37,2013-04-30 08:54:00,
2013-04-30 04:59:00,53.8,50.3,30.06,ESE,112,4.2,5.8,88,0.00,BKN,,0.00,WeatherDisplay:10.37,2013-04-30 08:59:00,
2013-04-30 05:04:00,54.0,50.5,30.06,ENE,68,3.0,4.6,88,0.00,BKN,,0.00,WeatherDisplay:10.37,2013-04-30 09:04:00,
2013-04-30 05:09:00,54.0,50.5,30.06,ESE,112,2.6,5.8,88,0.00,BKN,,0.00,WeatherDisplay:10.37,2013-04-30 09:09:00,
2013-04-30 05:14:00,53.4,49.9,30.06,ESE,112,5.2,7.0,88,0.00,BKN,,0.00,WeatherDisplay:10.37,2013-04-30 09:14:00,
2013-04-30 05:19:00,53.6,50.1,30.06,SSE,158,1.0,2.3,88,0.00,BKN,,0.00,WeatherDisplay:10.37,2013-04-30 09:19:00,
2013-04-30 05:24:00,53.2,50.0,30.06,SSE,158,0.0,0.0,89,0.00,BKN,,0.00,WeatherDisplay:10.37,2013-04-30 09:24:00,
2013-04-30 05:29:00,53.2,50.3,30.07,ENE,68,0.0,2.3,90,0.00,BKN,,0.00,WeatherDisplay:10.37,2013-04-30 09:29:00,
2013-04-30 05:34:00,52.9,50.0,30.07,ENE,68,0.0,0.0,90,0.00,BKN,,0.00,WeatherDisplay:10.37,2013-04-30 09:34:00,
2013-04-30 05:39:00,52.9,50.0,30.07,ENE,68,0.0,0.0,90,0.00,BKN,,0.00,WeatherDisplay:10.37,2013-04-30 09:39:00,
2013-04-30 05:44:00,53.2,50.3,30.07,ENE,68,0.6,2.7,90,0.00,BKN,,0.00,WeatherDisplay:10.37,2013-04-30 09:44:00,
2013-04-30 05:49:00,53.4,50.2,30.07,SSE,158,3.0,4.6,89,0.00,BKN,,0.00,WeatherDisplay:10.37,2013-04-30 09:49:00,
2013-04-30 05:54:00,53.4,50.2,30.07,SSE,158,0.7,3.5,89,0.00,BKN,,0.00,WeatherDisplay:10.37,2013-04-30 09:54:00,
2013-04-30 05:59:00,53.6,50.1,30.07,East,90,5.5,6.1,88,0.00,BKN,,0.00,WeatherDisplay:10.37,2013-04-30 09:59:00,
2013-04-30 06:04:00,53.8,50.0,30.08,South,180,0.9,2.7,87,0.00,BKN,,0.00,WeatherDisplay:10.37,2013-04-30 10:04:00,
2013-04-30 06:09:00,53.8,50.3,30.08,East,90,3.7,5.8,88,0.00,BKN,,0.00,WeatherDisplay:10.37,2013-04-30 10:09:00,
2013-04-30 06:14:00,54.1,50.3,30.09,South,180,3.2,4.6,87,0.00,BKN,,0.00,WeatherDisplay:10.37,2013-04-30 10:14:00,
2013-04-30 06:19:00,54.0,50.2,30.09,South,180,3.0,3.6,87,0.00,BKN,,0.00,WeatherDisplay:10.37,2013-04-30 10:19:00,
2013-04-30 06:24:00,54.0,50.2,30.09,SSE,158,4.0,4.6,87,0.00,BKN,,0.00,WeatherDisplay:10.37,2013-04-30 10:24:00,
2013-04-30 06:29:00,54.1,50.0,30.09,SSE,158,2.7,5.8,86,0.00,BKN,,0.00,WeatherDisplay:10.37,2013-04-30 10:29:00,
2013-04-30 06:34:00,54.3,50.2,30.09,SW,225,3.1,9.2,86,0.00,BKN,,0.00,WeatherDisplay:10.37,2013-04-30 10:34:00,
2013-04-30 06:39:00,54.3,50.2,30.09,ESE,112,2.5,4.6,86,0.00,BKN,,0.00,WeatherDisplay:10.37,2013-04-30 10:39:00,
2013-04-30 06:44:00,54.3,49.9,30.09,SSE,158,3.0,5.8,85,0.00,BKN,,0.00,WeatherDisplay:10.37,2013-04-30 10:44:00,
2013-04-30 06:49:00,54.3,49.9,30.09,SSE,158,4.0,5.8,85,0.00,BKN,,0.00,WeatherDisplay:10.37,2013-04-30 10:49:00,
2013-04-30 06:54:00,54.3,49.9,30.09,South,180,4.8,6.1,85,0.00,BKN,,0.00,WeatherDisplay:10.37,2013-04-30 10:54:00,
2013-04-30 06:59:00,54.3,49.9,30.09,South,180,3.1,9.2,85,0.00,BKN,,0.00,WeatherDisplay:10.37,2013-04-30 10:59:00,
2013-04-30 07:04:00,54.5,50.1,30.09,SE,135,5.1,6.1,85,0.00,OVC,,0.00,WeatherDisplay:10.37,2013-04-30 11:04:00,
2013-04-30 07:09:00,54.7,50.0,30.09,South,180,2.5,3.5,84,0.00,OVC,,0.00,WeatherDisplay:10.37,2013-04-30 11:09:00,
2013-04-30 07:14:00,54.9,50.2,30.10,SSE,158,6.5,9.5,84,0.00,OVC,,0.00,WeatherDisplay:10.37,2013-04-30 11:14:00,
2013-04-30 07:19:00,54.9,50.2,30.10,SSE,158,2.8,4.4,84,0.00,OVC,,0.00,WeatherDisplay:10.37,2013-04-30 11:19:00,
2013-04-30 07:24:00,55.0,49.9,30.10,NE,45,4.2,5.8,83,0.00,OVC,,0.00,WeatherDisplay:10.37,2013-04-30 11:24:00,
2013-04-30 07:29:00,55.2,49.8,30.10,SW,225,4.8,5.8,82,0.00,OVC,,0.00,WeatherDisplay:10.37,2013-04-30 11:29:00,
2013-04-30 07:34:00,55.4,50.0,30.10,SSE,158,3.6,4.4,82,0.00,OVC,,0.00,WeatherDisplay:10.37,2013-04-30 11:34:00,
2013-04-30 07:39:00,55.6,49.9,30.10,ESE,112,4.4,5.8,81,0.00,OVC,,0.00,WeatherDisplay:10.37,2013-04-30 11:39:00,
2013-04-30 07:44:00,55.8,50.1,30.10,ESE,112,6.1,9.2,81,0.00,OVC,,0.00,WeatherDisplay:10.37,2013-04-30 11:44:00,
2013-04-30 07:49:00,55.9,50.2,30.10,SSE,158,5.1,6.1,81,0.00,OVC,,0.00,WeatherDisplay:10.37,2013-04-30 11:49:00,
2013-04-30 07:54:00,56.1,50.0,30.11,NE,45,6.4,8.1,80,0.00,OVC,,0.00,WeatherDisplay:10.37,2013-04-30 11:54:00,
2013-04-30 07:59:00,56.1,49.7,30.11,SSE,158,5.2,13.8,79,0.00,OVC,,0.00,WeatherDisplay:10.37,2013-04-30 11:59:00,
2013-04-30 08:04:00,56.1,50.0,30.11,ESE,112,2.7,4.4,80,0.00,OVC,,0.00,WeatherDisplay:10.37,2013-04-30 12:04:00,
2013-04-30 08:09:00,56.1,49.7,30.11,South,180,6.3,9.2,79,0.00,OVC,,0.00,WeatherDisplay:10.37,2013-04-30 12:09:00,
2013-04-30 08:14:00,56.3,49.9,30.12,SSW,202,3.1,5.8,79,0.00,OVC,,0.00,WeatherDisplay:10.37,2013-04-30 12:14:00,
2013-04-30 08:19:00,56.5,49.7,30.12,East,90,6.5,8.1,78,0.00,OVC,,0.00,WeatherDisplay:10.37,2013-04-30 12:19:00,
2013-04-30 08:24:00,56.7,49.9,30.12,ENE,68,4.9,7.0,78,0.00,OVC,,0.00,WeatherDisplay:10.37,2013-04-30 12:24:00,
2013-04-30 08:29:00,57.0,49.9,30.12,SSE,158,4.4,5.8,77,0.00,OVC,,0.00,WeatherDisplay:10.37,2013-04-30 12:29:00,
2013-04-30 08:34:00,57.4,50.6,30.12,SSE,158,0.0,2.3,78,0.00,OVC,,0.00,WeatherDisplay:10.37,2013-04-30 12:34:00,
2013-04-30 08:39:00,57.6,50.4,30.13,SSE,158,6.7,9.2,77,0.00,OVC,,0.00,WeatherDisplay:10.37,2013-04-30 12:39:00,
2013-04-30 08:44:00,57.9,50.4,30.13,SSE,158,5.9,9.2,76,0.00,OVC,,0.00,WeatherDisplay:10.37,2013-04-30 12:44:00,
2013-04-30 08:49:00,58.1,50.2,30.13,ENE,68,6.6,8.1,75,0.00,OVC,,0.00,WeatherDisplay:10.37,2013-04-30 12:49:00,
2013-04-30 08:54:00,58.5,50.2,30.12,South,180,6.7,10.4,74,0.00,OVC,,0.00,WeatherDisplay:10.37,2013-04-30 12:54:00,
2013-04-30 08:59:00,58.8,50.5,30.12,SSE,158,4.6,6.9,74,0.00,OVC,,0.00,WeatherDisplay:10.37,2013-04-30 12:59:00,
2013-04-30 09:04:00,59.2,50.5,30.13,SSE,158,7.1,8.1,73,0.00,OVC,,0.00,WeatherDisplay:10.37,2013-04-30 13:04:00,
2013-04-30 09:09:00,58.8,50.2,30.13,ESE,112,5.9,8.1,73,0.00,OVC,,0.00,WeatherDisplay:10.37,2013-04-30 13:09:00,
2013-04-30 09:15:00,59.2,50.5,30.13,SE,135,6.6,9.2,73,0.00,OVC,,0.00,WeatherDisplay:10.37,2013-04-30 13:15:00,
2013-04-30 09:20:00,59.9,50.8,30.12,ESE,112,5.0,6.1,72,0.00,OVC,,0.00,WeatherDisplay:10.37,2013-04-30 13:20:00,
2013-04-30 09:25:00,61.0,50.8,30.12,SE,135,4.1,5.8,69,0.00,OVC,,0.00,WeatherDisplay:10.37,2013-04-30 13:25:00,
2013-04-30 09:30:00,61.0,50.8,30.13,ESE,112,6.2,9.5,69,0.00,OVC,,0.00,WeatherDisplay:10.37,2013-04-30 13:30:00,
2013-04-30 09:35:00,61.2,50.9,30.13,SW,225,5.1,8.1,69,0.00,OVC,,0.00,WeatherDisplay:10.37,2013-04-30 13:35:00,
2013-04-30 09:40:00,60.9,51.0,30.13,SSE,161,7.0,10.0,70,0.00,OVC,OVC,0.00,WeatherDisplay:10.37,2013-04-30 13:40:00,
2013-04-30 09:45:00,60.8,51.0,30.13,SE,135,7.4,10.4,70,0.00,OVC,,0.00,WeatherDisplay:10.37,2013-04-30 13:45:00,
2013-04-30 09:50:00,61.2,50.9,30.13,East,90,5.3,6.9,69,0.00,OVC,,0.00,WeatherDisplay:10.37,2013-04-30 13:50:00,
2013-04-30 09:55:00,62.2,51.5,30.13,SSE,158,5.8,9.2,68,0.00,OVC,,0.00,WeatherDisplay:10.37,2013-04-30 13:55:00,
2013-04-30 10:00:00,61.5,51.2,30.13,WNW,292,4.6,10.4,69,0.00,OVC,,0.00,WeatherDisplay:10.37,2013-04-30 14:00:00,
2013-04-30 10:05:00,61.0,50.8,30.13,SSE,158,3.7,5.8,69,0.00,BKN,,0.00,WeatherDisplay:10.37,2013-04-30 14:05:00,
2013-04-30 10:10:00,61.3,51.0,30.13,South,180,4.7,7.0,69,0.00,BKN,,0.00,WeatherDisplay:10.37,2013-04-30 14:10:00,
2013-04-30 10:15:00,61.7,51.0,30.13,SSE,158,4.4,5.8,68,0.00,BKN,,0.00,WeatherDisplay:10.37,2013-04-30 14:15:00,
2013-04-30 10:20:00,61.9,50.8,30.13,SE,135,5.9,7.0,67,0.00,BKN,,0.00,WeatherDisplay:10.37,2013-04-30 14:20:00,
2013-04-30 10:25:00,63.0,51.0,30.13,SSW,202,5.9,11.5,65,0.00,BKN,,0.00,WeatherDisplay:10.37,2013-04-30 14:25:00,
2013-04-30 10:30:00,62.2,50.7,30.14,West,270,6.7,9.2,66,0.00,BKN,,0.00,WeatherDisplay:10.37,2013-04-30 14:30:00,
2013-04-30 10:35:00,63.5,51.9,30.14,South,180,5.7,7.8,66,0.00,BKN,,0.00,WeatherDisplay:10.37,2013-04-30 14:35:00,
2013-04-30 10:40:00,63.1,51.1,30.13,WSW,248,7.8,11.5,65,0.00,BKN,,0.00,WeatherDisplay:10.37,2013-04-30 14:40:00,
2013-04-30 10:45:00,62.8,51.3,30.13,West,270,3.6,10.4,66,0.00,BKN,,0.00,WeatherDisplay:10.37,2013-04-30 14:45:00,
2013-04-30 10:50:00,64.6,51.7,30.13,SSE,158,5.0,7.0,63,0.00,BKN,,0.00,WeatherDisplay:10.37,2013-04-30 14:50:00,
2013-04-30 10:55:00,64.0,51.1,30.13,NE,45,5.9,9.2,63,0.00,BKN,,0.00,WeatherDisplay:10.37,2013-04-30 14:55:00,
2013-04-30 11:00:00,64.8,52.3,30.13,SE,135,8.9,11.5,64,0.00,BKN,,0.00,WeatherDisplay:10.37,2013-04-30 15:00:00,
2013-04-30 11:05:00,64.6,51.7,30.13,South,180,8.1,9.5,63,0.00,BKN,,0.00,WeatherDisplay:10.37,2013-04-30 15:05:00,
2013-04-30 11:10:00,66.7,52.8,30.13,SSW,202,6.2,9.2,61,0.00,BKN,,0.00,WeatherDisplay:10.37,2013-04-30 15:10:00,
2013-04-30 11:15:00,66.4,52.5,30.13,SSE,158,7.8,11.5,61,0.00,BKN,,0.00,WeatherDisplay:10.37,2013-04-30 15:15:00,
2013-04-30 11:20:00,66.9,53.0,30.13,South,180,5.1,7.0,61,0.00,BKN,,0.00,WeatherDisplay:10.37,2013-04-30 15:20:00,
2013-04-30 11:25:00,66.6,52.7,30.13,South,180,4.6,11.5,61,0.00,BKN,,0.00,WeatherDisplay:10.37,2013-04-30 15:25:00,
2013-04-30 11:30:00,67.1,52.3,30.13,SSE,158,5.6,9.2,59,0.00,BKN,,0.00,WeatherDisplay:10.37,2013-04-30 15:30:00,
2013-04-30 11:35:00,67.1,52.3,30.13,SSW,202,6.5,9.5,59,0.00,BKN,,0.00,WeatherDisplay:10.37,2013-04-30 15:35:00,
2013-04-30 11:40:00,67.1,52.3,30.13,SSW,202,5.3,5.8,59,0.00,BKN,,0.00,WeatherDisplay:10.37,2013-04-30 15:40:00,
2013-04-30 11:45:00,66.2,51.9,30.13,SSE,158,5.7,12.9,60,0.00,BKN,,0.00,WeatherDisplay:10.37,2013-04-30 15:45:00,
2013-04-30 11:50:00,66.7,52.4,30.13,ENE,68,6.1,11.5,60,0.00,BKN,,0.00,WeatherDisplay:10.37,2013-04-30 15:50:00,
2013-04-30 11:55:00,66.6,52.3,30.13,South,180,7.0,13.8,60,0.00,BKN,,0.00,WeatherDisplay:10.37,2013-04-30 15:55:00,
2013-04-30 12:00:00,67.5,52.2,30.13,SSE,158,7.5,9.2,58,0.00,BKN,,0.00,WeatherDisplay:10.37,2013-04-30 16:00:00,
2013-04-30 12:05:00,67.6,52.3,30.12,East,90,5.0,10.4,58,0.00,BKN,,0.00,WeatherDisplay:10.37,2013-04-30 16:05:00,
2013-04-30 12:10:00,68.5,52.7,30.12,South,180,10.3,14.6,57,0.00,BKN,,0.00,WeatherDisplay:10.37,2013-04-30 16:10:00,
2013-04-30 12:16:00,68.2,52.4,30.13,SW,225,6.9,10.4,57,0.00,SCT,,0.00,WeatherDisplay:10.37,2013-04-30 16:16:00,
2013-04-30 12:21:00,69.1,53.2,30.13,South,180,5.4,6.9,57,0.00,SCT,,0.00,WeatherDisplay:10.37,2013-04-30 16:21:00,
2013-04-30 12:26:00,69.3,53.4,30.12,SSE,158,4.6,9.2,57,0.00,SCT,,0.00,WeatherDisplay:10.37,2013-04-30 16:26:00,
2013-04-30 12:31:00,69.8,52.9,30.12,SSW,202,4.3,5.8,55,0.00,SCT,,0.00,WeatherDisplay:10.37,2013-04-30 16:31:00,
2013-04-30 12:36:00,69.4,53.0,30.12,South,180,3.3,5.8,56,0.00,SCT,,0.00,WeatherDisplay:10.37,2013-04-30 16:36:00,
2013-04-30 12:41:00,71.8,54.3,30.13,SW,225,4.2,9.2,54,0.00,SCT,,0.00,WeatherDisplay:10.37,2013-04-30 16:41:00,
2013-04-30 12:46:00,71.1,53.6,30.13,South,180,3.6,8.1,54,0.00,SCT,,0.00,WeatherDisplay:10.37,2013-04-30 16:46:00,
2013-04-30 12:51:00,69.6,52.7,30.12,South,180,3.8,8.1,55,0.00,SCT,,0.00,WeatherDisplay:10.37,2013-04-30 16:51:00,
2013-04-30 12:56:00,70.9,52.9,30.12,SSW,202,6.0,7.0,53,0.00,SCT,,0.00,WeatherDisplay:10.37,2013-04-30 16:56:00,
2013-04-30 13:01:00,71.6,54.1,30.12,South,180,5.9,8.1,54,0.00,SCT,,0.00,WeatherDisplay:10.37,2013-04-30 17:01:00,
2013-04-30 13:06:00,71.8,53.7,30.12,South,180,6.1,7.0,53,0.00,SCT,,0.00,WeatherDisplay:10.37,2013-04-30 17:06:00,
2013-04-30 13:11:00,72.1,52.4,30.12,SSE,158,6.2,7.0,50,0.00,SCT,,0.00,WeatherDisplay:10.37,2013-04-30 17:11:00,
2013-04-30 13:16:00,70.0,53.1,30.12,SSE,158,4.3,5.8,55,0.00,SCT,,0.00,WeatherDisplay:10.37,2013-04-30 17:16:00,
2013-04-30 13:21:00,69.4,52.5,30.12,South,180,3.6,5.8,55,0.00,SCT,,0.00,WeatherDisplay:10.37,2013-04-30 17:21:00,
2013-04-30 13:26:00,69.6,52.2,30.11,East,90,10.3,15.0,54,0.00,SCT,,0.00,WeatherDisplay:10.37,2013-04-30 17:26:00,
2013-04-30 13:31:00,71.4,53.9,30.11,SW,225,5.5,11.5,54,0.00,SCT,,0.00,WeatherDisplay:10.37,2013-04-30 17:31:00,
2013-04-30 13:36:00,72.0,52.3,30.11,ENE,68,1.5,9.2,50,0.00,SCT,,0.00,WeatherDisplay:10.37,2013-04-30 17:36:00,
2013-04-30 13:41:00,71.4,53.4,30.11,NE,45,7.1,9.5,53,0.00,SCT,,0.00,WeatherDisplay:10.37,2013-04-30 17:41:00,
2013-04-30 13:46:00,70.0,52.6,30.11,East,90,4.5,15.0,54,0.00,SCT,,0.00,WeatherDisplay:10.37,2013-04-30 17:46:00,
2013-04-30 13:51:00,71.2,53.2,30.12,ENE,68,5.0,6.1,53,0.00,SCT,,0.00,WeatherDisplay:10.37,2013-04-30 17:51:00,
2013-04-30 13:56:00,70.0,52.6,30.12,SSE,158,5.1,11.5,54,0.00,SCT,,0.00,WeatherDisplay:10.37,2013-04-30 17:56:00,
2013-04-30 14:01:00,69.6,53.7,30.12,SE,135,6.0,10.4,57,0.00,SCT,,0.00,WeatherDisplay:10.37,2013-04-30 18:01:00,
2013-04-30 14:06:00,69.3,52.9,30.12,ENE,68,4.2,8.1,56,0.00,SCT,,0.00,WeatherDisplay:10.37,2013-04-30 18:06:00,
2013-04-30 14:11:00,70.0,53.1,30.12,SSE,158,5.4,9.2,55,0.00,SCT,,0.00,WeatherDisplay:10.37,2013-04-30 18:11:00,
2013-04-30 14:16:00,72.0,53.9,30.12,NE,45,5.9,9.2,53,0.00,SCT,,0.00,WeatherDisplay:10.37,2013-04-30 18:16:00,
2013-04-30 14:21:00,71.6,53.0,30.12,NE,45,8.5,11.2,52,0.00,SCT,,0.00,WeatherDisplay:10.37,2013-04-30 18:21:00,
2013-04-30 14:26:00,71.1,52.6,30.12,ESE,112,7.9,11.5,52,0.00,SCT,,0.00,WeatherDisplay:10.37,2013-04-30 18:26:00,
2013-04-30 14:31:00,71.4,52.9,30.12,NE,45,5.9,8.1,52,0.00,SCT,,0.00,WeatherDisplay:10.37,2013-04-30 18:31:00,
2013-04-30 14:36:00,72.5,53.3,30.12,East,90,9.2,10.4,51,0.00,SCT,,0.00,WeatherDisplay:10.37,2013-04-30 18:36:00,
2013-04-30 14:41:00,71.8,53.2,30.12,SSE,158,6.9,8.1,52,0.00,SCT,,0.00,WeatherDisplay:10.37,2013-04-30 18:41:00,
2013-04-30 14:46:00,71.4,52.9,30.12,ESE,112,10.2,13.8,52,0.00,SCT,,0.00,WeatherDisplay:10.37,2013-04-30 18:46:00,
2013-04-30 14:51:00,71.6,53.6,30.12,ESE,112,6.1,10.4,53,0.00,SCT,,0.00,WeatherDisplay:10.37,2013-04-30 18:51:00,
2013-04-30 14:56:00,72.3,53.2,30.12,NE,45,6.7,11.2,51,0.00,SCT,,0.00,WeatherDisplay:10.37,2013-04-30 18:56:00,
2013-04-30 15:01:00,72.1,53.0,30.12,East,90,7.6,9.2,51,0.00,BKN,,0.00,WeatherDisplay:10.37,2013-04-30 19:01:00,
2013-04-30 15:06:00,72.9,54.2,30.12,NE,45,8.7,11.5,52,0.00,BKN,,0.00,WeatherDisplay:10.37,2013-04-30 19:06:00,
2013-04-30 15:11:00,70.5,52.5,30.12,ESE,112,7.5,11.5,53,0.00,BKN,,0.00,WeatherDisplay:10.37,2013-04-30 19:11:00,
2013-04-30 15:16:00,72.0,53.4,30.12,ENE,68,9.7,12.1,52,0.00,BKN,,0.00,WeatherDisplay:10.37,2013-04-30 19:16:00,
2013-04-30 15:21:00,72.1,53.0,30.12,NE,45,8.5,12.9,51,0.00,BKN,,0.00,WeatherDisplay:10.37,2013-04-30 19:21:00,
2013-04-30 15:26:00,72.1,53.5,30.12,SSE,158,11.4,12.9,52,0.00,BKN,,0.00,WeatherDisplay:10.37,2013-04-30 19:26:00,
2013-04-30 15:31:00,71.4,52.9,30.12,NNE,22,8.0,15.0,52,0.00,BKN,,0.00,WeatherDisplay:10.37,2013-04-30 19:31:00,
2013-04-30 15:36:00,71.4,52.9,30.12,NNE,22,9.6,12.1,52,0.00,BKN,,0.00,WeatherDisplay:10.37,2013-04-30 19:36:00,
2013-04-30 15:41:00,71.8,52.7,30.12,NE,45,10.3,13.8,51,0.00,BKN,,0.00,WeatherDisplay:10.37,2013-04-30 19:41:00,
2013-04-30 15:46:00,72.1,53.5,30.12,NE,45,8.2,11.5,52,0.00,BKN,,0.00,WeatherDisplay:10.37,2013-04-30 19:46:00,
2013-04-30 15:51:00,71.8,52.7,30.11,ESE,112,6.0,9.2,51,0.00,BKN,,0.00,WeatherDisplay:10.37,2013-04-30 19:51:00,
2013-04-30 15:56:00,71.8,52.2,30.11,NE,45,10.9,13.8,50,0.00,BKN,,0.00,WeatherDisplay:10.37,2013-04-30 19:56:00,
2013-04-30 16:01:00,72.1,53.0,30.11,ESE,112,8.9,11.2,51,0.00,BKN,,0.00,WeatherDisplay:10.37,2013-04-30 20:01:00,
2013-04-30 16:06:00,71.2,52.1,30.11,ESE,112,8.7,13.8,51,0.00,BKN,,0.00,WeatherDisplay:10.37,2013-04-30 20:06:00,
2013-04-30 16:11:00,72.5,53.3,30.11,SSE,158,10.7,12.9,51,0.00,BKN,,0.00,WeatherDisplay:10.37,2013-04-30 20:11:00,
2013-04-30 16:16:00,72.0,53.4,30.11,South,180,5.1,8.1,52,0.00,BKN,,0.00,WeatherDisplay:10.37,2013-04-30 20:16:00,
2013-04-30 16:21:00,72.3,53.7,30.11,ESE,112,5.8,11.5,52,0.00,BKN,,0.00,WeatherDisplay:10.37,2013-04-30 20:21:00,
2013-04-30 16:26:00,71.4,52.9,30.11,NE,45,6.1,9.5,52,0.00,BKN,,0.00,WeatherDisplay:10.37,2013-04-30 20:26:00,
2013-04-30 16:31:00,71.6,52.5,30.11,East,90,8.0,11.2,51,0.00,BKN,,0.00,WeatherDisplay:10.37,2013-04-30 20:31:00,
2013-04-30 16:36:00,71.4,52.3,30.11,ENE,68,9.9,12.9,51,0.00,BKN,,0.00,WeatherDisplay:10.37,2013-04-30 20:36:00,
2013-04-30 16:41:00,71.4,52.3,30.11,ENE,68,10.4,15.0,51,0.00,BKN,,0.00,WeatherDisplay:10.37,2013-04-30 20:41:00,
2013-04-30 16:46:00,70.7,51.7,30.11,ENE,68,10.4,10.4,51,0.00,BKN,,0.00,WeatherDisplay:10.37,2013-04-30 20:46:00,
2013-04-30 16:51:00,71.1,52.0,30.12,ENE,68,7.5,12.1,51,0.00,BKN,,0.00,WeatherDisplay:10.37,2013-04-30 20:51:00,
2013-04-30 16:56:00,71.2,52.1,30.12,ESE,112,7.2,8.7,51,0.00,BKN,,0.00,WeatherDisplay:10.37,2013-04-30 20:56:00,
2013-04-30 17:02:00,71.8,52.2,30.11,ENE,68,9.7,15.0,50,0.00,BKN,,0.00,WeatherDisplay:10.37,2013-04-30 21:02:00,
2013-04-30 17:07:00,71.1,52.0,30.11,ESE,112,7.8,11.5,51,0.00,BKN,,0.00,WeatherDisplay:10.37,2013-04-30 21:07:00,
2013-04-30 17:12:00,71.2,51.6,30.11,SE,135,11.4,13.8,50,0.00,BKN,,0.00,WeatherDisplay:10.37,2013-04-30 21:12:00,
2013-04-30 17:17:00,70.9,51.9,30.11,ESE,112,7.6,12.7,51,0.00,BKN,,0.00,WeatherDisplay:10.37,2013-04-30 21:17:00,
2013-04-30 17:22:00,71.4,51.8,30.11,ENE,68,8.9,11.5,50,0.00,BKN,,0.00,WeatherDisplay:10.37,2013-04-30 21:22:00,
2013-04-30 17:27:00,72.0,52.3,30.11,SW,225,4.7,8.1,50,0.00,BKN,,0.00,WeatherDisplay:10.37,2013-04-30 21:27:00,
2013-04-30 17:32:00,72.3,51.5,30.11,ENE,68,8.8,12.9,48,0.00,BKN,,0.00,WeatherDisplay:10.37,2013-04-30 21:32:00,
2013-04-30 17:37:00,73.8,52.3,30.11,ESE,112,5.9,7.0,47,0.00,BKN,,0.00,WeatherDisplay:10.37,2013-04-30 21:37:00,
2013-04-30 17:42:00,73.4,52.5,30.11,SSE,158,5.4,6.9,48,0.00,BKN,,0.00,WeatherDisplay:10.37,2013-04-30 21:42:00,
2013-04-30 17:47:00,72.3,52.6,30.11,SE,135,5.6,7.0,50,0.00,BKN,,0.00,WeatherDisplay:10.37,2013-04-30 21:47:00,
2013-04-30 17:52:00,71.1,52.0,30.12,SSE,158,7.4,9.2,51,0.00,BKN,,0.00,WeatherDisplay:10.37,2013-04-30 21:52:00,
2013-04-30 17:57:00,71.1,52.0,30.12,SSE,158,3.5,9.2,51,0.00,BKN,,0.00,WeatherDisplay:10.37,2013-04-30 21:57:00,
2013-04-30 18:02:00,70.9,52.4,30.12,ESE,112,8.7,12.1,52,0.00,BKN,,0.00,WeatherDisplay:10.37,2013-04-30 22:02:00,
2013-04-30 18:07:00,70.5,52.0,30.12,South,180,6.1,9.5,52,0.00,BKN,,0.00,WeatherDisplay:10.37,2013-04-30 22:07:00,
2013-04-30 18:12:00,69.6,51.7,30.12,SW,225,7.4,10.4,53,0.00,BKN,,0.00,WeatherDisplay:10.37,2013-04-30 22:12:00,
2013-04-30 18:17:00,69.6,51.7,30.12,ESE,112,9.1,11.5,53,0.00,BKN,,0.00,WeatherDisplay:10.37,2013-04-30 22:17:00,
2013-04-30 18:22:00,69.3,51.9,30.12,SSE,158,5.2,10.4,54,0.00,BKN,,0.00,WeatherDisplay:10.37,2013-04-30 22:22:00,
2013-04-30 18:27:00,69.3,51.4,30.12,ESE,112,4.0,9.2,53,0.00,BKN,,0.00,WeatherDisplay:10.37,2013-04-30 22:27:00,
2013-04-30 18:32:00,68.7,51.4,30.12,SSE,158,4.8,9.2,54,0.00,BKN,,0.00,WeatherDisplay:10.37,2013-04-30 22:32:00,
2013-04-30 18:37:00,68.5,51.7,30.12,ESE,112,7.5,11.2,55,0.00,BKN,,0.00,WeatherDisplay:10.37,2013-04-30 22:37:00,
2013-04-30 18:42:00,68.4,51.6,30.12,SSE,158,8.0,12.9,55,0.00,BKN,,0.00,WeatherDisplay:10.37,2013-04-30 22:42:00,
2013-04-30 18:47:00,67.8,51.5,30.12,SE,135,6.2,8.7,56,0.00,BKN,,0.00,WeatherDisplay:10.37,2013-04-30 22:47:00,
2013-04-30 18:52:00,67.5,50.8,30.12,NE,45,9.8,19.7,55,0.00,BKN,,0.00,WeatherDisplay:10.37,2013-04-30 22:52:00,
2013-04-30 18:57:00,66.7,50.5,30.12,ESE,112,8.3,12.1,56,0.00,BKN,,0.00,WeatherDisplay:10.37,2013-04-30 22:57:00,
2013-04-30 19:02:00,66.0,50.3,30.12,SE,135,8.7,10.4,57,0.00,BKN,,0.00,WeatherDisplay:10.37,2013-04-30 23:02:00,
2013-04-30 19:07:00,65.5,50.3,30.12,East,90,7.6,12.9,58,0.00,BKN,,0.00,WeatherDisplay:10.37,2013-04-30 23:07:00,
2013-04-30 19:12:00,65.5,50.8,30.12,ESE,112,5.1,9.2,59,0.00,BKN,,0.00,WeatherDisplay:10.37,2013-04-30 23:12:00,
2013-04-30 19:17:00,64.4,50.2,30.13,South,180,9.8,18.4,60,0.00,BKN,,0.00,WeatherDisplay:10.37,2013-04-30 23:17:00,
2013-04-30 19:22:00,64.0,49.8,30.13,SSE,158,8.0,12.9,60,0.00,BKN,,0.00,WeatherDisplay:10.37,2013-04-30 23:22:00,
2013-04-30 19:27:00,63.7,50.0,30.13,South,180,8.2,10.4,61,0.00,BKN,,0.00,WeatherDisplay:10.37,2013-04-30 23:27:00,
2013-04-30 19:32:00,63.5,49.8,30.13,South,180,8.9,10.4,61,0.00,BKN,,0.00,WeatherDisplay:10.37,2013-04-30 23:32:00,
2013-04-30 19:37:00,63.5,50.2,30.14,SSE,158,7.3,10.4,62,0.00,BKN,,0.00,WeatherDisplay:10.37,2013-04-30 23:37:00,
2013-04-30 19:42:00,63.3,50.5,30.14,South,180,4.3,4.4,63,0.00,BKN,,0.00,WeatherDisplay:10.37,2013-04-30 23:42:00,
2013-04-30 19:47:00,63.0,50.2,30.14,South,180,8.3,10.4,63,0.00,BKN,,0.00,WeatherDisplay:10.37,2013-04-30 23:47:00,
2013-04-30 19:52:00,62.8,50.0,30.14,SE,135,6.3,9.2,63,0.00,BKN,,0.00,WeatherDisplay:10.37,2013-04-30 23:52:00,
2013-04-30 19:57:00,62.4,50.1,30.14,ESE,112,8.6,16.3,64,0.00,BKN,,0.00,WeatherDisplay:10.37,2013-04-30 23:57:00,
2013-04-30 20:03:00,62.2,50.3,30.15,South,180,9.1,16.1,65,0.00,SCT,,0.00,WeatherDisplay:10.37,2013-05-01 00:03:00,
2013-04-30 20:08:00,61.9,50.0,30.15,NNE,22,7.0,10.4,65,0.00,SCT,,0.00,WeatherDisplay:10.37,2013-05-01 00:08:00,
2013-04-30 20:13:00,61.9,50.0,30.15,ESE,112,6.4,8.1,65,0.00,SCT,,0.00,WeatherDisplay:10.37,2013-05-01 00:13:00,
2013-04-30 20:19:00,61.3,49.8,30.16,East,90,8.6,11.5,66,0.00,SCT,,0.00,WeatherDisplay:10.37,2013-05-01 00:19:00,
2013-04-30 20:24:00,61.2,50.2,30.16,SSE,158,3.1,10.4,67,0.00,SCT,,0.00,WeatherDisplay:10.37,2013-05-01 00:24:00,
2013-04-30 20:29:00,61.0,50.4,30.16,SSE,158,4.3,6.1,68,0.00,SCT,,0.00,WeatherDisplay:10.37,2013-05-01 00:29:00,
2013-04-30 20:34:00,60.8,50.2,30.16,SSE,158,7.3,13.8,68,0.00,SCT,,0.00,WeatherDisplay:10.37,2013-05-01 00:34:00,
2013-04-30 20:39:00,60.6,50.0,30.16,SSE,158,5.7,7.0,68,0.00,SCT,,0.00,WeatherDisplay:10.37,2013-05-01 00:39:00,
2013-04-30 20:44:00,60.6,50.0,30.16,SSE,158,5.7,9.2,68,0.00,SCT,,0.00,WeatherDisplay:10.37,2013-05-01 00:44:00,
2013-04-30 20:49:00,60.4,50.2,30.17,SSE,158,3.6,4.6,69,0.00,SCT,,0.00,WeatherDisplay:10.37,2013-05-01 00:49:00,
2013-04-30 20:54:00,60.3,50.1,30.17,South,180,6.6,8.1,69,0.00,SCT,,0.00,WeatherDisplay:10.37,2013-05-01 00:54:00,
2013-04-30 20:59:00,60.3,50.1,30.17,SE,135,6.2,7.0,69,0.00,SCT,,0.00,WeatherDisplay:10.37,2013-05-01 00:59:00,
2013-04-30 21:04:00,60.3,50.1,30.17,SSE,158,4.8,9.2,69,0.00,BKN,,0.00,WeatherDisplay:10.37,2013-05-01 01:04:00,
2013-04-30 21:09:00,60.1,49.9,30.17,South,180,5.8,8.1,69,0.00,BKN,,0.00,WeatherDisplay:10.37,2013-05-01 01:09:00,
2013-04-30 21:14:00,59.9,50.1,30.16,South,180,4.1,4.6,70,0.00,BKN,,0.00,WeatherDisplay:10.37,2013-05-01 01:14:00,
2013-04-30 21:19:00,59.7,49.9,30.16,SSE,158,4.6,7.8,70,0.00,BKN,,0.00,WeatherDisplay:10.37,2013-05-01 01:19:00,
2013-04-30 21:24:00,59.9,50.1,30.16,South,180,6.8,10.4,70,0.00,BKN,,0.00,WeatherDisplay:10.37,2013-05-01 01:24:00,
2013-04-30 21:29:00,59.9,50.1,30.17,South,180,5.1,10.4,70,0.00,BKN,,0.00,WeatherDisplay:10.37,2013-05-01 01:29:00,
2013-04-30 21:34:00,59.9,50.1,30.17,WSW,248,6.5,10.4,70,0.00,BKN,,0.00,WeatherDisplay:10.37,2013-05-01 01:34:00,
2013-04-30 21:39:00,59.7,49.9,30.16,SSW,202,4.3,5.8,70,0.00,BKN,,0.00,WeatherDisplay:10.37,2013-05-01 01:39:00,
2013-04-30 21:44:00,59.7,49.9,30.16,SSE,158,10.7,12.9,70,0.00,BKN,,0.00,WeatherDisplay:10.37,2013-05-01 01:44:00,
2013-04-30 21:49:00,59.7,50.3,30.17,South,180,3.8,4.6,71,0.00,BKN,,0.00,WeatherDisplay:10.37,2013-05-01 01:49:00,
2013-04-30 21:54:00,59.4,50.0,30.17,West,270,3.2,5.3,71,0.00,BKN,,0.00,WeatherDisplay:10.37,2013-05-01 01:54:00,
2013-04-30 21:59:00,59.2,50.2,30.17,South,180,5.8,10.4,72,0.00,BKN,,0.00,WeatherDisplay:10.37,2013-05-01 01:59:00,
2013-04-30 22:04:00,59.4,50.0,30.18,East,90,4.9,8.1,71,0.00,BKN,,0.00,WeatherDisplay:10.37,2013-05-01 02:04:00,
2013-04-30 22:09:00,59.2,50.2,30.18,ESE,112,3.6,9.2,72,0.00,BKN,,0.00,WeatherDisplay:10.37,2013-05-01 02:09:00,
2013-04-30 22:14:00,59.0,50.0,30.19,SSE,158,4.0,4.6,72,0.00,BKN,,0.00,WeatherDisplay:10.37,2013-05-01 02:14:00,
2013-04-30 22:19:00,59.0,50.4,30.19,West,270,4.0,6.9,73,0.00,BKN,,0.00,WeatherDisplay:10.37,2013-05-01 02:19:00,
2013-04-30 22:24:00,58.8,50.2,30.19,NW,315,1.0,3.5,73,0.00,BKN,,0.00,WeatherDisplay:10.37,2013-05-01 02:24:00,
2013-04-30 22:29:00,58.8,50.2,30.19,SSW,202,7.0,8.7,73,0.00,BKN,,0.00,WeatherDisplay:10.37,2013-05-01 02:29:00,
2013-04-30 22:34:00,59.0,50.0,30.19,ESE,112,10.9,12.9,72,0.00,BKN,,0.00,WeatherDisplay:10.37,2013-05-01 02:34:00,
2013-04-30 22:39:00,58.8,50.2,30.19,SSE,158,4.3,6.1,73,0.00,BKN,,0.00,WeatherDisplay:10.37,2013-05-01 02:39:00,
2013-04-30 22:44:00,58.8,50.2,30.19,South,180,4.5,6.9,73,0.00,BKN,,0.00,WeatherDisplay:10.37,2013-05-01 02:44:00,
2013-04-30 22:49:00,58.6,50.0,30.19,SSE,158,6.9,9.2,73,0.00,BKN,,0.00,WeatherDisplay:10.37,2013-05-01 02:49:00,
2013-04-30 22:54:00,58.8,49.8,30.19,South,180,4.9,13.8,72,0.00,BKN,,0.00,WeatherDisplay:10.37,2013-05-01 02:54:00,
2013-04-30 22:59:00,58.8,49.8,30.19,SSW,202,6.4,9.2,72,0.00,BKN,,0.00,WeatherDisplay:10.37,2013-05-01 02:59:00,
2013-04-30 23:04:00,58.6,49.6,30.19,SSE,158,5.2,8.1,72,0.00,BKN,,0.00,WeatherDisplay:10.37,2013-05-01 03:04:00,
2013-04-30 23:09:00,58.6,49.6,30.19,SSE,158,8.0,9.2,72,0.00,BKN,,0.00,WeatherDisplay:10.37,2013-05-01 03:09:00,
2013-04-30 23:14:00,58.6,49.6,30.19,South,180,7.9,11.2,72,0.00,BKN,,0.00,WeatherDisplay:10.37,2013-05-01 03:14:00,
2013-04-30 23:19:00,58.3,49.7,30.19,SSW,202,5.6,9.2,73,0.00,BKN,,0.00,WeatherDisplay:10.37,2013-05-01 03:19:00,
2013-04-30 23:24:00,58.5,49.9,30.19,South,180,7.4,11.5,73,0.00,BKN,,0.00,WeatherDisplay:10.37,2013-05-01 03:24:00,
2013-04-30 23:29:00,58.5,49.5,30.20,SSE,158,7.9,10.4,72,0.00,BKN,,0.00,WeatherDisplay:10.37,2013-05-01 03:29:00,
2013-04-30 23:34:00,58.5,49.5,30.20,SSW,202,4.7,15.0,72,0.00,BKN,,0.00,WeatherDisplay:10.37,2013-05-01 03:34:00,
2013-04-30 23:39:00,58.3,49.3,30.19,South,180,4.2,8.1,72,0.00,BKN,,0.00,WeatherDisplay:10.37,2013-05-01 03:39:00,
2013-04-30 23:44:00,58.1,49.1,30.19,SE,135,6.8,11.2,72,0.00,BKN,,0.00,WeatherDisplay:10.37,2013-05-01 03:44:00,
2013-04-30 23:49:00,57.9,49.3,30.19,South,180,4.4,5.8,73,0.00,BKN,,0.00,WeatherDisplay:10.37,2013-05-01 03:49:00,
2013-04-30 23:54:00,57.9,49.3,30.20,South,180,5.9,8.1,73,0.00,BKN,,0.00,WeatherDisplay:10.37,2013-05-01 03:54:00,
2013-04-30 23:59:00,57.9,49.3,30.20,South,180,4.8,8.1,73,0.00,BKN,,0.00,WeatherDisplay:10.37,2013-05-01 03:59:00,